This is the latest recevied weather packets stored in our database for station/object WD9U. If no packets are shown the sender has not sent any weather packets the latest 10 day(s).
| Time | Temp. | Humidity | Pressure | Rain* | Wind** | Luminosity | Snow |
|---|---|---|---|---|---|---|---|
| 1777485045 | 7.22° C | 46% | 1017.8 hPa | 0 mm | - | 368 W/m² | - |
| 1777484692 | 7.22° C | 43% | 1017.7 hPa | 0 mm | - | 327 W/m² | - |
| 1777484332 | 7.78° C | 43% | 1017.8 hPa | 0 mm | - | 310 W/m² | - |
| 1777483971 | 7.78° C | 39% | 1017.6 hPa | 0 mm | - | 391 W/m² | - |
| 1777483845 | 7.78° C | 40% | 1017.6 hPa | 0 mm | - | 374 W/m² | - |
| 1777483611 | 7.78° C | 37% | 1017.5 hPa | 0 mm | - | 358 W/m² | - |
| 1777483251 | 8.33° C | 37% | 1017.6 hPa | 0 mm | - | 419 W/m² | - |
| 1777482891 | 8.33° C | 36% | 1017.5 hPa | 0 mm | - | 1064 W/m² | - |
| 1777482644 | 8.33° C | 36% | 1017.5 hPa | 0 mm | - | 342 W/m² | - |
| 1777482531 | 8.33° C | 35% | 1017.6 hPa | 0 mm | - | 379 W/m² | - |
| 1777482171 | 8.89° C | 34% | 1017.6 hPa | 0 mm | - | 288 W/m² | - |
| 1777481811 | 8.89° C | 36% | 1017.7 hPa | 0 mm | - | 544 W/m² | - |
| 1777481444 | 8.89° C | 36% | 1017.6 hPa | 0 mm | - | 360 W/m² | - |
| 1777481091 | 8.89° C | 37% | 1017.5 hPa | 0 mm | - | 516 W/m² | - |
| 1777480731 | 8.33° C | 38% | 1017.5 hPa | 0 mm | - | 932 W/m² | - |
| 1777480371 | 8.33° C | 38% | 1017.6 hPa | 0 mm | - | 870 W/m² | - |
| 1777480244 | 8.33° C | 37% | 1017.7 hPa | 0 mm | - | 384 W/m² | - |
| 1777480011 | 8.89° C | 38% | 1017.6 hPa | 0 mm | - | 326 W/m² | - |
| 1777479651 | 8.33° C | 41% | 1017.6 hPa | 0 mm | - | 848 W/m² | - |
| 1777479291 | 7.78° C | 41% | 1017.5 hPa | 0 mm | - | 864 W/m² | - |
| 1777478931 | 7.78° C | 42% | 1017.6 hPa | 0 mm | - | 926 W/m² | - |
| 1777478571 | 8.33° C | 44% | 1017.4 hPa | 0 mm | - | 250 W/m² | - |
| 1777478211 | 8.33° C | 44% | 1017.5 hPa | 0 mm | - | 582 W/m² | - |
| 1777477844 | 8.33° C | 44% | 1017.5 hPa | 0 mm | - | 340 W/m² | - |
| 1777477491 | 7.78° C | 46% | 1017.6 hPa | 0 mm | - | 935 W/m² | - |
* Rain latest hour (hover to see other rain measurements)
** Current wind speed in m/s (hover to see current wind gust speed)